Weather History for HTIR - September, 2013

Change the Weather History Date:

Friday, September 27, 2013

  Actual Average Record
Temperature  
Mean Temperature 73 °F -  
Max Temperature 87 °F - - ()
Min Temperature 59 °F - - ()
Cooling Degree Days 8    
Growing Degree Days 23 (Base 50)    
Moisture  
Dew Point 49 °F    
Average Humidity 41    
Maximum Humidity 72    
Minimum Humidity 12    
Precipitation  
Precipitation 0.00 in - - ()
Sea Level Pressure  
Sea Level Pressure 30.11 in    
Wind  
Wind Speed 5 mph ()    
Max Wind Speed 25 mph    
Max Gust Speed -    
Visibility 8.2 miles    
Events      
T = Trace of Precipitation, MM = Missing Value Source: Averaged Metar Reports

Daily Weather History Graph

Daily Weather History Graph

Search for Another Location

Airport or City:

Trip Planner

Search our weather history database for the weather conditions in past years. The results will help you decide how hot, cold, wet, or windy it might be!

Date:

Astronomy

Sep. 27, 2013 Rise Set
Actual Time 6:23 AM EAT 6:32 PM EAT
Civil Twilight 6:02 AM EAT 6:53 PM EAT
Nautical Twilight 5:38 AM EAT 7:17 PM EAT
Astronomical Twilight 5:14 AM EAT 7:41 PM EAT
Moon 12:29 AM EAT (9/27) 12:30 PM EAT (9/27)
Length of Visible Light 12h 50m
Length of Day
12h 08m
Waning Gibbous, 48% of the Moon is Illuminated
Sep 27
Waning Gibbous
Oct 5
New
Oct 12
First Quarter
Oct 19
Full
Oct 27
Last Quarter

Hourly Weather History & Observations

Time (EAT) Temp. Dew Point Humidity Pressure Visibility Wind Dir Wind Speed Gust Speed Precip Events Conditions
12:00 AM 68.0 °F 50.0 °F 52% 30.12 in 6.2 mi Calm Calm - N/A   Clear
1:00 AM 68.0 °F 50.0 °F 52% 30.12 in 6.2 mi Calm Calm - N/A   Clear
2:00 AM 68.0 °F 50.0 °F 52% 30.09 in 6.2 mi Calm Calm - N/A   Clear
3:00 AM 72 °F 51 °F 37%  in 19 mi Calm Calm - -  
3:00 AM 69.8 °F 50.0 °F 49% 30.09 in 6.2 mi Calm Calm - N/A   Clear
4:00 AM 68.0 °F 50.0 °F 52% 30.09 in 6.2 mi Calm Calm - N/A   Clear
5:00 AM 64.4 °F 51.8 °F 64% 30.12 in 6.2 mi Calm Calm - N/A   Clear
6:00 AM 83 °F 46 °F 18%  in 19 mi NE 17.3 mph - -   Scattered Clouds
6:00 AM 60.8 °F 50.0 °F 68% 30.12 in 6.2 mi Calm Calm - N/A   Clear
7:00 AM 59.0 °F 50.0 °F 72% 30.15 in 6.2 mi Calm Calm - N/A   Clear
8:00 AM 64.4 °F 53.6 °F 68% 30.18 in 6.2 mi Calm Calm - N/A   Clear
9:00 AM 71.6 °F 51.8 °F 50% 30.18 in 6.2 mi Calm Calm - N/A   Clear
10:00 AM 78.8 °F 50.0 °F 36% 30.18 in - SE 8.1 mph - N/A   Clear
11:00 AM 82.4 °F 48.2 °F 30% 30.18 in 6.2 mi Calm Calm - N/A   Clear
12:00 PM 82.4 °F 46.4 °F 28% 30.15 in 6.2 mi NE 17.3 mph - N/A   Partly Cloudy
1:00 PM 86.0 °F 46.4 °F 25% 30.12 in 6.2 mi ENE 11.5 mph - N/A   Partly Cloudy
2:00 PM 87.8 °F 42.8 °F 21% 30.06 in 6.2 mi East 23.0 mph - N/A   Partly Cloudy
3:00 PM 87 °F 42 °F 12%  in 19 mi East 25.3 mph - -   Scattered Clouds
3:00 PM 87.8 °F 42.8 °F 21% 30.06 in 6.2 mi East 25.3 mph - N/A   Partly Cloudy
4:00 PM 86.0 °F 46.4 °F 25% 30.04 in 6.2 mi East 23.0 mph - N/A   Partly Cloudy
5:00 PM 84.2 °F 46.4 °F 27% 30.04 in 6.2 mi East 11.5 mph - N/A   Partly Cloudy
6:00 PM 82 °F 48 °F 20%  in 19 mi SE 13.8 mph - -   Scattered Clouds
6:00 PM 82.4 °F 48.2 °F 30% 30.04 in 6.2 mi SE 13.8 mph - N/A   Partly Cloudy
7:00 PM 77.0 °F 50.0 °F 39% 30.06 in 6.2 mi SE 11.5 mph - N/A   Partly Cloudy
8:00 PM 73.4 °F 53.6 °F 50% 30.06 in 6.2 mi South 5.8 mph - N/A   Clear
10:00 PM 69.8 °F 53.6 °F 56% 30.12 in 6.2 mi SSW 9.2 mph - N/A   Clear
11:00 PM 68.0 °F 53.6 °F 60% 30.12 in 6.2 mi South 11.5 mph - N/A   Clear